TimeMST,TemperatureF,Dew PointF,Humidity,Sea Level PressureIn,VisibilityMPH,Wind Direction,Wind SpeedMPH,Gust SpeedMPH,PrecipitationIn,Events,Conditions,WindDirDegrees,DateUTC
12:53 AM,37.9,24.1,57,29.75,10.0,Variable,3.5,-,N/A,,Scattered Clouds,0,2013-02-06 07:53:00
1:53 AM,32.0,21.9,66,29.77,10.0,WSW,10.4,-,N/A,,Partly Cloudy,240,2013-02-06 08:53:00
2:53 AM,35.1,24.1,64,29.73,10.0,SSW,13.8,-,N/A,,Clear,200,2013-02-06 09:53:00
3:53 AM,30.9,23.0,72,29.74,10.0,SW,13.8,-,N/A,,Mostly Cloudy,220,2013-02-06 10:53:00
4:53 AM,30.9,21.0,67,29.77,10.0,SW,16.1,-,N/A,,Clear,220,2013-02-06 11:53:00
5:53 AM,30.0,19.9,66,29.79,10.0,SW,10.4,-,N/A,,Clear,220,2013-02-06 12:53:00
6:53 AM,30.9,21.0,67,29.78,10.0,WSW,16.1,-,N/A,,Scattered Clouds,240,2013-02-06 13:53:00
7:53 AM,27.0,19.0,72,29.82,10.0,West,8.1,-,N/A,,Clear,260,2013-02-06 14:53:00
8:53 AM,36.0,19.9,52,29.78,10.0,WSW,15.0,-,N/A,,Mostly Cloudy,240,2013-02-06 15:53:00
9:53 AM,37.9,18.0,45,29.76,10.0,WSW,18.4,-,N/A,,Scattered Clouds,250,2013-02-06 16:53:00
10:53 AM,39.9,16.0,38,29.77,-9999.0,WSW,16.1,-,N/A,,Overcast,250,2013-02-06 17:53:00
11:53 AM,41.0,15.1,35,29.77,10.0,WNW,18.4,25.3,N/A,,Overcast,290,2013-02-06 18:53:00
12:53 PM,41.0,14.0,33,29.75,10.0,WNW,20.7,-,N/A,,Overcast,300,2013-02-06 19:53:00
1:53 PM,37.9,15.1,39,29.81,10.0,West,18.4,26.5,N/A,,Overcast,280,2013-02-06 20:53:00
2:53 PM,37.0,12.0,36,29.82,10.0,NW,17.3,-,N/A,,Overcast,310,2013-02-06 21:53:00
3:53 PM,36.0,10.0,34,29.86,10.0,WNW,23.0,-,N/A,,Overcast,290,2013-02-06 22:53:00
4:53 PM,33.1,10.9,40,29.91,10.0,West,11.5,-,N/A,,Overcast,260,2013-02-06 23:53:00
5:53 PM,30.9,12.9,47,29.94,10.0,WSW,13.8,-,N/A,,Overcast,250,2013-02-07 00:53:00
6:53 PM,28.9,12.9,51,29.98,10.0,WNW,3.5,-,N/A,,Overcast,290,2013-02-07 01:53:00
7:53 PM,25.0,10.9,55,30.03,10.0,WSW,3.5,-,N/A,,Clear,250,2013-02-07 02:53:00
8:53 PM,25.0,10.9,55,29.99,10.0,West,5.8,-,N/A,,Clear,260,2013-02-07 03:53:00
9:53 PM,19.9,10.0,65,30.05,10.0,Calm,Calm,-,N/A,,Clear,0,2013-02-07 04:53:00
10:53 PM,19.9,9.0,62,30.05,10.0,SSE,5.8,-,N/A,,Clear,160,2013-02-07 05:53:00
11:53 PM,19.9,10.0,65,30.06,10.0,Calm,Calm,-,N/A,,Clear,0,2013-02-07 06:53:00